Weather History for Mullan Pass, ID

Change the Weather History Date:

Wednesday, September 3, 2014

  Actual Average (K3TH) Record (K3TH)
Temperature  
Mean Temperature 42 °F -  
Max Temperature 43 °F 77 °F 99 °F (1998)
Min Temperature 35 °F 50 °F 42 °F (1999)
Degree Days  
Heating Degree Days 24    
Moisture  
Dew Point 37 °F    
Average Humidity 97    
Maximum Humidity 100    
Minimum Humidity 68    
Precipitation  
Precipitation 0.48 in - - ()
Sea Level Pressure  
Sea Level Pressure 29.90 in    
Wind  
Wind Speed 7 mph (SW)    
Max Wind Speed 15 mph    
Max Gust Speed 32 mph    
Visibility 4 miles    
Events Fog , Rain    
Averages and records for this station are not official NWS values.
T = Trace of Precipitation, MM = Missing Value Source: NWS Daily Summary

Daily Weather History Graph

Daily Weather History Graph

Search for Another Location

Airport:

Trip Planner

Search our weather history database for the weather conditions in past years. The results will help you decide how hot, cold, wet, or windy it might be!

Date:

Astronomy

Sep. 03, 2014 Rise Set
Actual Time 6:04 AM PDT 7:18 PM PDT
Civil Twilight 5:32 AM PDT 7:50 PM PDT
Nautical Twilight 4:54 AM PDT 8:28 PM PDT
Astronomical Twilight 4:13 AM PDT 9:08 PM PDT
Moon 3:18 PM PDT (9/3) No Moon Set
Length of Visible Light 14h 17m
Length of Day
13h 14m
Waxing Gibbous, 65% of the Moon is Illuminated
Sep 3
Waxing Gibbous
Sep 8
Full
Sep 15
Last Quarter
Sep 23
New
Oct 1
First Quarter

Hourly Weather History & Observations

Time (PDT) Temp. Windchill Dew Point Humidity Pressure Visibility Wind Dir Wind Speed Gust Speed Precip Events Conditions
12:11 AM 48.0 °F - 37.9 °F 68% 29.78 in 10.0 mi SW 10.4 mph 24.2 mph N/A   Overcast
12:53 AM 43.0 °F 37.2 °F 41.0 °F 93% 29.57 in 10.0 mi SW 10.4 mph 20.7 mph 0.02 in Rain Light Rain
1:11 AM 42.1 °F 36.6 °F 41.0 °F 96% 29.79 in 3.0 mi West 9.2 mph - 0.05 in Rain Heavy Rain
1:21 AM 42.1 °F 36.1 °F 39.9 °F 92% 29.79 in 10.0 mi West 10.4 mph 28.8 mph 0.05 in   Overcast
1:31 AM 42.1 °F 38.4 °F 39.9 °F 92% 29.79 in 10.0 mi Variable 5.8 mph 23.0 mph 0.05 in   Overcast
1:38 AM 41.0 °F 36.4 °F 39.9 °F 96% 29.78 in 6.0 mi Variable 6.9 mph 18.4 mph 0.06 in Rain Light Rain
1:53 AM 41.0 °F 35.2 °F 39.9 °F 96% 29.58 in 9.0 mi West 9.2 mph 18.4 mph 0.06 in Rain Light Rain
2:06 AM 41.0 °F 35.2 °F 39.0 °F 93% 29.79 in 10.0 mi SW 9.2 mph 19.6 mph 0.00 in   Overcast
2:26 AM 39.9 °F 33.4 °F 37.0 °F 89% 29.78 in 10.0 mi SW 10.4 mph 20.7 mph 0.00 in   Mostly Cloudy
2:49 AM 39.2 °F 33.6 °F 35.6 °F 87% 29.78 in 10.0 mi SW 8.1 mph 16.1 mph 0.00 in   Scattered Clouds
2:53 AM 37.9 °F 30.5 °F 35.1 °F 89% 29.58 in 10.0 mi SW 11.5 mph 20.7 mph 0.00 in   Partly Cloudy
3:10 AM 37.9 °F 32.7 °F 35.1 °F 89% 29.79 in 10.0 mi WSW 6.9 mph - N/A   Mostly Cloudy
3:53 AM 37.0 °F 29.3 °F 33.1 °F 86% 29.60 in 10.0 mi WSW 11.5 mph 32.2 mph N/A   Scattered Clouds
4:12 AM 36.0 °F 30.3 °F 33.1 °F 89% 29.80 in 10.0 mi Variable 6.9 mph 23.0 mph N/A   Mostly Cloudy
4:53 AM 36.0 °F 29.6 °F 32.0 °F 86% 29.61 in 10.0 mi SW 8.1 mph 27.6 mph N/A   Mostly Cloudy
5:44 AM 36.0 °F 29.6 °F 33.1 °F 89% 29.81 in 10.0 mi WSW 8.1 mph 23.0 mph N/A   Overcast
5:53 AM 36.0 °F 26.7 °F 33.1 °F 89% 29.62 in 10.0 mi SW 15.0 mph 28.8 mph 0.00 in Rain Light Rain
6:24 AM 36.0 °F 29.6 °F 34.0 °F 93% 29.82 in 10.0 mi SW 8.1 mph 19.6 mph 0.00 in   Overcast
6:53 AM 35.1 °F 28.6 °F 34.0 °F 96% 29.66 in 7.0 mi SSW 8.1 mph - 0.01 in Rain Light Rain
7:03 AM 35.1 °F 27.9 °F 35.1 °F 100% 29.84 in 7.0 mi SSW 9.2 mph - 0.00 in Rain Light Rain
7:27 AM 35.1 °F 30.1 °F 35.1 °F 100% 29.85 in 2.0 mi Variable 5.8 mph 18.4 mph 0.00 in Rain Light Rain
7:46 AM 35.1 °F 30.1 °F 35.1 °F 100% 29.85 in 1.8 mi Variable 5.8 mph - 0.01 in Rain Light Rain
7:53 AM 35.1 °F 30.1 °F 34.0 °F 96% 29.69 in 2.0 mi Variable 5.8 mph - 0.01 in Rain Light Rain
8:01 AM 35.1 °F 29.3 °F 35.1 °F 100% 29.86 in 1.2 mi Variable 6.9 mph - 0.00 in Rain Light Rain
8:12 AM 35.1 °F 29.3 °F 35.1 °F 100% 29.86 in 0.8 mi Variable 6.9 mph - 0.00 in Rain Light Rain
8:53 AM 35.1 °F 26.9 °F 35.1 °F 100% 29.73 in 0.2 mi SW 11.5 mph 21.9 mph 0.02 in Fog , Rain Light Rain
9:33 AM 36.0 °F 28.5 °F 36.0 °F 100% 29.87 in 0.8 mi SW 10.4 mph 20.7 mph 0.01 in Rain Light Rain
9:53 AM 36.0 °F 29.0 °F 36.0 °F 100% 29.76 in 0.5 mi SSW 9.2 mph 19.6 mph 0.02 in Fog , Rain Light Rain
10:38 AM 36.0 °F 30.3 °F 36.0 °F 100% 29.91 in 1.0 mi Variable 6.9 mph 24.2 mph 0.03 in Rain Light Rain
10:45 AM 36.0 °F 29.6 °F 36.0 °F 100% 29.91 in 0.8 mi SSW 8.1 mph - 0.03 in Rain Light Rain
10:53 AM 36.0 °F 33.3 °F 36.0 °F 100% 29.79 in 1.0 mi Variable 3.5 mph - 0.04 in Rain Light Rain
11:06 AM 36.0 °F 29.0 °F 35.1 °F 97% 29.92 in 0.5 mi SW 9.2 mph 18.4 mph 0.00 in Fog , Rain Light Rain
11:13 AM 36.0 °F 30.3 °F 36.0 °F 100% 29.92 in 0.2 mi Variable 6.9 mph - 0.00 in Fog , Rain Light Rain
11:46 AM 36.0 °F 29.6 °F 36.0 °F 100% 29.93 in 0.2 mi SW 8.1 mph - 0.01 in Fog , Rain Light Rain
11:53 AM 37.0 °F 33.3 °F 37.0 °F 100% 29.81 in 0.2 mi Variable 4.6 mph 17.3 mph 0.01 in Fog , Rain Light Rain
12:07 PM 37.0 °F 32.4 °F 37.0 °F 100% 29.94 in 0.2 mi Variable 5.8 mph 16.1 mph 0.01 in Fog , Rain Light Rain
12:31 PM 37.0 °F - 37.0 °F 100% 29.95 in 0.2 mi Calm Calm - 0.03 in Fog , Rain Light Rain
12:53 PM 37.9 °F - 37.0 °F 97% 29.82 in 0.2 mi Calm Calm - 0.05 in Fog , Rain Light Rain
1:53 PM 37.0 °F 32.4 °F 37.0 °F 100% 29.86 in 0.2 mi Variable 5.8 mph - 0.06 in Fog , Rain Light Rain
2:53 PM 37.0 °F 34.5 °F 37.0 °F 100% 29.89 in 0.2 mi Variable 3.5 mph - 0.07 in Fog , Rain Light Rain
3:03 PM 36.0 °F 32.1 °F 36.0 °F 100% 30.02 in 1.2 mi Variable 4.6 mph - 0.00 in Rain Light Rain
3:05 PM 37.0 °F 33.3 °F 36.0 °F 96% 30.02 in 2.5 mi Variable 4.6 mph - 0.01 in Rain Light Rain
3:10 PM 37.0 °F 34.5 °F 37.0 °F 100% 30.02 in 1.0 mi Variable 3.5 mph - 0.01 in Rain Light Rain
3:18 PM 37.0 °F 34.5 °F 37.0 °F 100% 30.02 in 0.8 mi Variable 3.5 mph - 0.02 in Rain Light Rain
3:30 PM 37.0 °F 32.4 °F 37.0 °F 100% 30.03 in 0.2 mi Variable 5.8 mph - 0.04 in Fog , Rain Rain
3:49 PM 37.4 °F 32.8 °F 37.4 °F 100% 30.03 in 0.2 mi Variable 5.8 mph - 0.06 in Fog , Rain Light Rain
3:53 PM 37.9 °F 35.5 °F 37.9 °F 100% 29.91 in 0.2 mi Variable 3.5 mph - 0.07 in Fog , Rain Light Rain
4:29 PM 37.9 °F - 37.9 °F 100% 30.04 in 0.2 mi North - - 0.03 in Fog , Rain Light Rain
4:53 PM 37.9 °F 34.4 °F 37.9 °F 100% 29.94 in 0.2 mi Variable 4.6 mph - 0.03 in Fog Fog
5:20 PM 37.9 °F 34.4 °F 37.9 °F 100% 30.06 in 1.2 mi Variable 4.6 mph - 0.00 in Rain Light Rain
5:22 PM 37.9 °F 35.5 °F 37.9 °F 100% 30.06 in 2.5 mi Variable 3.5 mph - 0.00 in Rain Light Rain
5:29 PM 37.9 °F 33.5 °F 37.9 °F 100% 30.06 in 3.0 mi Variable 5.8 mph - 0.00 in Rain Light Rain
5:37 PM 37.9 °F 34.4 °F 37.9 °F 100% 30.06 in 6.0 mi Variable 4.6 mph - 0.00 in   Overcast
5:42 PM 37.9 °F 34.4 °F 37.9 °F 100% 30.06 in 1.8 mi Variable 4.6 mph - 0.00 in   Overcast
5:48 PM 37.4 °F 33.8 °F 37.4 °F 100% 30.07 in 0.8 mi Variable 4.6 mph - 0.00 in   Overcast
5:53 PM 37.9 °F 34.4 °F 37.9 °F 100% 29.96 in 0.5 mi NW 4.6 mph - 0.00 in Fog Fog
6:06 PM 37.9 °F 34.4 °F 37.9 °F 100% 30.07 in 0.2 mi NW 4.6 mph - N/A Fog Fog
6:18 PM 37.9 °F - 37.9 °F 100% 30.07 in 0.2 mi Calm Calm - N/A Fog Fog
6:36 PM 37.9 °F 34.4 °F 37.9 °F 100% 30.08 in 0.5 mi WSW 4.6 mph - 0.00 in Fog , Rain Light Rain
6:39 PM 37.9 °F 35.5 °F 37.9 °F 100% 30.08 in 2.5 mi Variable 3.5 mph - 0.00 in Rain Light Rain
6:44 PM 37.9 °F - 37.9 °F 100% 30.08 in 8.0 mi Calm Calm - 0.01 in Rain Light Rain
6:53 PM 37.9 °F 35.5 °F 37.0 °F 97% 29.97 in 10.0 mi West 3.5 mph - 0.01 in Rain Light Rain
7:23 PM 37.9 °F 35.5 °F 37.0 °F 97% 30.08 in 10.0 mi Variable 3.5 mph - 0.00 in   Overcast
7:53 PM 37.0 °F 33.3 °F 37.0 °F 100% 29.99 in 7.0 mi WNW 4.6 mph - 0.00 in   Overcast
8:53 PM 37.0 °F - 36.0 °F 96% 30.00 in 10.0 mi Calm Calm - N/A   Mostly Cloudy
9:53 PM 37.0 °F - 36.0 °F 96% 29.99 in 10.0 mi Calm Calm - N/A   Scattered Clouds
10:41 PM 37.9 °F 35.5 °F 36.0 °F 93% 30.11 in 10.0 mi SE 3.5 mph - N/A   Mostly Cloudy
10:53 PM 37.0 °F 33.3 °F 37.0 °F 100% 30.00 in 10.0 mi SSE 4.6 mph - N/A   Overcast
11:35 PM 37.9 °F 35.5 °F 36.0 °F 93% 30.11 in 10.0 mi SSE 3.5 mph - N/A   Scattered Clouds
11:53 PM 37.0 °F 34.5 °F 36.0 °F 96% 30.01 in 10.0 mi South 3.5 mph - N/A   Clear